Weather History for LHDC - October, 2012

Change the Weather History Date:

Sunday, October 7, 2012

  Actual Average Record
Temperature  
Mean Temperature 59 °F -  
Max Temperature 68 °F 58 °F - ()
Min Temperature 50 °F 40 °F - ()
Degree Days  
Heating Degree Days 6    
Growing Degree Days 9 (Base 50)    
Moisture  
Dew Point 53 °F    
Average Humidity 77    
Maximum Humidity 88    
Minimum Humidity 61    
Precipitation  
Precipitation 0.12 in 0.04 in - ()
Sea Level Pressure  
Sea Level Pressure 29.87 in    
Wind  
Wind Speed 5 mph ()    
Max Wind Speed 18 mph    
Max Gust Speed 46 mph    
Visibility 5.5 miles    
Events      
T = Trace of Precipitation, MM = Missing Value Source: Averaged Metar Reports

Daily Weather History Graph

Daily Weather History Graph

Search for Another Location

Airport or City:

Trip Planner

Search our weather history database for the weather conditions in past years. The results will help you decide how hot, cold, wet, or windy it might be!

Date:

Astronomy

Oct. 07, 2012 Rise Set
Actual Time 6:41 AM CEST 6:00 PM CEST
Civil Twilight 6:10 AM CEST 6:31 PM CEST
Nautical Twilight 5:34 AM CEST 7:06 PM CEST
Astronomical Twilight 4:58 AM CEST 7:42 PM CEST
Moon 10:37 PM CEST (10/7) 1:23 PM CEST (10/7)
Length of Visible Light 12h 20m
Length of Day
11h 19m
Waning Gibbous, 58% of the Moon is Illuminated
Oct 7
Waning Gibbous
Oct 8
Last Quarter
Oct 15
New
Oct 22
First Quarter
Oct 29
Full

Hourly Weather History & Observations

Time (CEST) Temp. Dew Point Humidity Pressure Visibility Wind Dir Wind Speed Gust Speed Precip Events Conditions
2:00 AM 53 °F 46 °F 70% 29.99 in - South 6.7 mph - -  
4:45 AM 51.8 °F 46.4 °F 82% 29.95 in - SE 2.3 mph - N/A   Clear
5:45 AM 51.8 °F 46.4 °F 82% 29.95 in - ESE 1.2 mph - N/A   Clear
6:15 AM 50.0 °F 46.4 °F 87% 29.95 in - SE 3.5 mph - N/A   Clear
6:45 AM 50.0 °F 46.4 °F 87% 29.95 in - SSE 3.5 mph - N/A   Clear
7:00 AM - - N/A% - - Variable 3.5 mph - N/A   Clear
7:15 AM 51.8 °F 48.2 °F 88% 29.95 in - WSW 1.2 mph - N/A   Clear
7:45 AM 53.6 °F 48.2 °F 82% 29.95 in - South 4.6 mph - N/A   Clear
8:00 AM 53 °F 49 °F 81% 29.95 in 6 mi South 4.5 mph - -   Partly Cloudy
8:15 AM 55.4 °F 48.2 °F 77% 29.95 in - South 5.8 mph - N/A   Clear
8:45 AM 55.4 °F 50.0 °F 82% 29.95 in - South 6.9 mph - N/A   Clear
9:15 AM 57.2 °F 51.8 °F 82% 29.95 in - South 6.9 mph - N/A   Clear
9:45 AM 59.0 °F 51.8 °F 77% 29.95 in 5.0 mi South 6.9 mph - N/A   Mostly Cloudy
10:00 AM - - N/A% - - SSW 9.2 mph - N/A   Clear
10:15 AM 60.8 °F 53.6 °F 77% 29.95 in 5.0 mi SSW 8.1 mph - N/A   Mostly Cloudy
10:45 AM 60.8 °F 53.6 °F 77% 29.92 in 5.0 mi South 6.9 mph - N/A   Mostly Cloudy
11:15 AM 64.4 °F 55.4 °F 73% 29.92 in 5.0 mi South 6.9 mph - N/A   Mostly Cloudy
11:45 AM 64.4 °F 55.4 °F 73% 29.92 in 5.0 mi South 5.8 mph - N/A   Mostly Cloudy
12:15 PM 66.2 °F 55.4 °F 68% 29.92 in - South 9.2 mph - N/A   Clear
12:45 PM 66.2 °F 57.2 °F 73% 29.89 in - SSW 10.4 mph - N/A   Clear
1:00 PM - - N/A% - - SSW 9.2 mph - N/A   Clear
1:15 PM 66.2 °F 55.4 °F 68% 29.89 in - SSW 9.2 mph - N/A   Clear
1:45 PM 68.0 °F 57.2 °F 68% 29.86 in - South 8.1 mph - N/A   Clear
2:00 PM 67 °F 57 °F 61% 29.86 in 6 mi South 8.9 mph - -   Partly Cloudy
2:15 PM 68.0 °F 57.2 °F 68% 29.86 in - SSW 8.1 mph - N/A   Clear
2:45 PM 68.0 °F 57.2 °F 68% 29.86 in - SSW 8.1 mph - N/A   Clear
3:15 PM 68.0 °F 57.2 °F 68% 29.83 in - SSW 6.9 mph - N/A   Clear
3:45 PM 68.0 °F 57.2 °F 68% 29.83 in - SSW 8.1 mph - N/A   Clear
4:00 PM - - N/A% - - SSW 9.2 mph - N/A   Clear
4:15 PM 66.2 °F 57.2 °F 73% 29.83 in 5.6 mi SW 8.1 mph - N/A   Mostly Cloudy
4:45 PM 66.2 °F 57.2 °F 73% 29.80 in 5.6 mi SW 5.8 mph - N/A   Overcast
5:15 PM 66.2 °F 57.2 °F 73% 29.80 in 5.6 mi South 3.5 mph - N/A   Overcast
5:45 PM 64.4 °F 57.2 °F 77% 29.80 in 5.6 mi WSW 3.5 mph - N/A   Mostly Cloudy
6:15 PM 62.6 °F 57.2 °F 82% 29.77 in 5.6 mi SSW 1.2 mph - N/A   Mostly Cloudy
6:45 PM 62.6 °F 55.4 °F 77% 29.77 in 5.6 mi South 2.3 mph - N/A   Mostly Cloudy
7:15 PM 60.8 °F 55.4 °F 82% 29.77 in - South 3.5 mph - N/A   Clear
7:45 PM 59.0 °F 55.4 °F 88% 29.77 in - South 4.6 mph - N/A   Clear
8:00 PM 59 °F 55 °F 83% 29.76 in 6 mi South 4.5 mph - -   Partly Cloudy
8:00 PM - - N/A% - - North - - N/A   Unknown
8:45 PM 59.0 °F 55.4 °F 88% 29.74 in - South 2.3 mph - N/A   Unknown
10:00 PM 59.0 °F 55.4 °F 88% 29.80 in - West 13.8 mph 27.6 mph N/A   Unknown
10:04 PM 57.2 °F 53.6 °F 88% 29.80 in - NW 18.4 mph 46.0 mph N/A   Unknown